Flag for Germany Weather past 2 weeks in Chemnitz, Saxony, Germany

Now
79 °F

Sunny.


Feels Like: 82 °F
Forecast: 60 / 86 °F
Wind: 1 mph from South

Location: Altenburg Nobitz

Current Time: Aug 31, 2015 at 10:37:13 PM

Latest Report: Aug 31, 2015 at 7:50 PM


Visibility: 10 mi

Pressure: 29.80 "Hg

Humidity: 84%

Dew point: 73 °F

Location of ChemnitzLocation

Historic Weather in Chemnitz — Graph

°F

Chemnitz temperature yesterday

Maximum temperature yesterday: 90 °F (at 3:50 PM)
Minimum temperature yesterday: 66 °F (at 9:20 AM)
Average temperature yesterday: 82 °F

Past Weeks' High & Low Weather Summary

 TemperatureHumidityPressure
High93 °F (Aug 31, 2:50 PM)100% (Aug 17, 8:20 AM)30.27 "Hg (Aug 17, 8:20 AM)
Low57 °F (Aug 18, 8:20 AM)34% (Aug 31, 4:20 PM)29.71 "Hg (Aug 24, 3:20 PM)
Average71 °F78%30.00 "Hg
* Reported Aug 17 8:20 AM — Aug 31 7:50 PM, Chemnitz, Weather by CustomWeather, © 2015

Note: Actual official high and low records may vary slightly from our data, if they occured in-between our weather recording intervals... More about our weather records

Advertising

Chemnitz weather history for previous 24 hours

 ConditionsComfort  
Time TempWeatherWind HumidityBarometerVisibility
7:50 PM
Mon, Aug 31
79 °FSunny.1 mph84%29.80 "Hg10 mi
7:20 PM81 °FSunny.2 mph79%29.80 "Hg10 mi
6:50 PM88 °FSunny.2 mph62%29.80 "Hg10 mi
6:20 PM90 °FSunny.2 mph49%29.83 "Hg10 mi
5:50 PM90 °FPassing clouds.3 mph49%29.83 "HgN/A
5:20 PM90 °FSunny.3 mph46%29.83 "Hg10 mi
4:50 PM86 °FSunny.3 mph59%29.83 "Hg10 mi
4:20 PM91 °FSunny.3 mph34%29.86 "Hg10 mi
3:50 PM91 °FPassing clouds.3 mph38%29.86 "HgN/A
3:20 PM91 °FSunny.3 mph41%29.86 "Hg10 mi
2:50 PM93 °FSunny.2 mph36%29.89 "Hg10 mi
2:20 PM91 °FPassing clouds.5 mph44%29.89 "HgN/A
1:50 PM91 °FPassing clouds.2 mph46%29.89 "HgN/A
1:20 PM88 °FSunny.2 mph52%29.92 "Hg10 mi
12:50 PM90 °FSunny.2 mph46%29.92 "Hg10 mi
12:20 PM86 °FSunny.2 mph52%29.92 "Hg10 mi
11:50 AM86 °FSunny.2 mph52%29.92 "Hg10 mi
11:20 AM84 °FSunny.2 mph58%29.95 "Hg10 mi
10:50 AM81 °FPassing clouds.3 mph62%29.95 "HgN/A
10:20 AM81 °FPassing clouds.3 mph62%29.95 "HgN/A
9:50 AM79 °FSunny.1 mph65%29.95 "Hg10 mi
9:20 AM77 °FPassing clouds.2 mph69%29.95 "HgN/A
8:50 AM75 °FPassing clouds.1 mph78%29.95 "HgN/A
7:50 AM70 °FSunny.1 mph88%29.98 "Hg10 mi
7:20 AM66 °FClear.2 mph94%29.98 "Hg10 mi
Weather by CustomWeather, © 2015

See weather overviewHow to use our weather pages